,,PA_Meas_PMT16A,,PR_Meas_QMR101_102,,RH_Meas_QMH101,,SR_Meas_QMS101,,TA_Meas_QMH101,,GenWind,,GenWind,
time,status,PA,status,PR,status,RH,status,SR,status,TA,status,DirAvg,status,SpdAvg,
2011-06-09, 00:00:05,VALID,918.11,VALID,0,VALID,93.9434,VALID,0,VALID,20.3854,VALID,13,VALID,0.386719,
2011-06-09, 00:01:05,VALID,918.106,VALID,0,VALID,94.1492,VALID,0,VALID,20.408,VALID,13,VALID,0.428906,
2011-06-09, 00:02:05,VALID,918.066,VALID,0,VALID,94.2407,VALID,0,VALID,20.3659,VALID,13,VALID,0.455078,
2011-06-09, 00:03:05,VALID,918.099,VALID,0,VALID,94.2178,VALID,0,VALID,20.3643,VALID,13,VALID,0.454688,
2011-06-09, 00:04:05,VALID,918.065,VALID,0,VALID,94.1568,VALID,0,VALID,20.3838,VALID,13,VALID,0.562109,
2011-06-09, 00:05:05,VALID,918.059,VALID,0,VALID,94.0501,VALID,0,VALID,20.4049,VALID,13,VALID,0.521875,
2011-06-09, 00:06:05,VALID,918.038,VALID,0,VALID,94.0196,VALID,0,VALID,20.4439,VALID,13,VALID,0.499219,
2011-06-09, 00:07:05,VALID,918,VALID,0,VALID,93.8214,VALID,0,VALID,20.4033,VALID,13,VALID,0.296484,
2011-06-09, 00:08:05,VALID,918.005,VALID,0,VALID,93.303,VALID,0,VALID,20.3838,VALID,13,VALID,0,
2011-06-09, 00:09:05,VALID,917.998,VALID,0,VALID,93.1886,VALID,0,VALID,20.3838,VALID,13,VALID,0.294922,
2011-06-09, 00:10:05,VALID,917.996,VALID,0,VALID,93.242,VALID,0,VALID,20.3433,VALID,13,VALID,0.239063,
2011-06-09, 00:11:05,VALID,917.985,VALID,0,VALID,93.0209,VALID,0,VALID,20.3058,VALID,13,VALID,0.298828,
2011-06-09, 00:12:05,VALID,917.981,VALID,0,VALID,93.6308,VALID,0,VALID,20.3058,VALID,13,VALID,0.479688,
2011-06-09, 00:13:05,VALID,917.98,VALID,0,VALID,93.9967,VALID,0,VALID,20.2863,VALID,12,VALID,0.530469,
2011-06-09, 00:14:05,VALID,918.005,VALID,0,VALID,94.2178,VALID,0,VALID,20.2863,VALID,13,VALID,0.782812,
2011-06-09, 00:15:05,VALID,918.023,VALID,0,VALID,94.3245,VALID,0,VALID,20.3269,VALID,12,VALID,0.791797,
2011-06-09, 00:16:05,VALID,917.988,VALID,0,VALID,94.2864,VALID,0,VALID,20.3448,VALID,13,VALID,0.821484,
2011-06-09, 00:17:05,VALID,917.988,VALID,0,VALID,94.1492,VALID,0,VALID,20.3854,VALID,13,VALID,0.743359,
2011-06-09, 00:18:05,VALID,917.97,VALID,0,VALID,93.951,VALID,0,VALID,20.3659,VALID,13,VALID,0.758203,
2011-06-09, 00:19:05,VALID,917.966,VALID,0,VALID,93.9357,VALID,0,VALID,20.3464,VALID,13,VALID,0.737891,
2011-06-09, 00:20:05,VALID,917.948,VALID,0,VALID,94.1111,VALID,0,VALID,20.3253,VALID,13,VALID,0.760156,
2011-06-09, 00:21:05,VALID,917.954,VALID,0,VALID,94.1873,VALID,0,VALID,20.3058,VALID,13,VALID,0.707812,
2011-06-09, 00:22:05,VALID,917.971,VALID,0,VALID,94.2864,VALID,0.107441,VALID,20.3058,VALID,13,VALID,0.541406,
2011-06-09, 00:23:05,VALID,917.97,VALID,0,VALID,94.3779,VALID,0,VALID,20.3058,VALID,13,VALID,0.447656,
2011-06-09, 00:24:05,VALID,917.965,VALID,0,VALID,94.3779,VALID,0,VALID,20.2863,VALID,12,VALID,0.452344,
2011-06-09, 00:25:05,VALID,917.959,VALID,0,VALID,94.3093,VALID,0,VALID,20.2668,VALID,13,VALID,0.512109,
2011-06-09, 00:26:05,VALID,917.937,VALID,0,VALID,94.233,VALID,0,VALID,20.2278,VALID,13,VALID,0.486328,
2011-06-09, 00:27:05,VALID,917.96,VALID,0,VALID,94.4236,VALID,0.107441,VALID,20.2278,VALID,13,VALID,0.327734,
2011-06-09, 00:28:05,VALID,917.927,VALID,0,VALID,94.2788,VALID,0,VALID,20.1888,VALID,12,VALID,0.153906,
2011-06-09, 00:29:05,VALID,917.908,VALID,0,VALID,94.4084,VALID,0,VALID,20.2098,VALID,13,VALID,0.173047,
2011-06-09, 00:30:05,VALID,917.878,VALID,0,VALID,94.4922,VALID,0,VALID,20.1693,VALID,13,VALID,0.263281,
2011-06-09, 00:31:05,VALID,917.855,VALID,0,VALID,94.538,VALID,0,VALID,20.1498,VALID,13,VALID,0.327344,
2011-06-09, 00:32:05,VALID,917.846,VALID,0,VALID,94.6752,VALID,0,VALID,20.1108,VALID,13,VALID,0.363281,
2011-06-09, 00:33:05,VALID,917.846,VALID,0,VALID,94.8048,VALID,0,VALID,20.1108,VALID,13,VALID,0.263672,
2011-06-09, 00:34:05,VALID,917.837,VALID,0,VALID,94.8734,VALID,0,VALID,20.1318,VALID,12,VALID,0.194141,
2011-06-09, 00:35:05,VALID,917.852,VALID,0,VALID,94.942,VALID,0,VALID,20.1108,VALID,13,VALID,0.0492188,
2011-06-09, 00:36:05,VALID,917.852,VALID,0,VALID,94.8582,VALID,0,VALID,20.1108,VALID,13,VALID,0,
2011-06-09, 00:37:05,VALID,917.895,VALID,0,VALID,94.9725,VALID,0,VALID,20.1498,VALID,12,VALID,0,
2011-06-09, 00:38:05,VALID,917.883,VALID,0,VALID,94.881,VALID,0,VALID,20.1498,VALID,12,VALID,0.148438,
2011-06-09, 00:39:05,VALID,917.848,VALID,0,VALID,94.1949,VALID,0,VALID,20.0913,VALID,13,VALID,0,
2011-06-09, 00:40:05,VALID,917.86,VALID,0,VALID,93.7223,VALID,0,VALID,20.0523,VALID,13,VALID,0,
2011-06-09, 00:41:05,VALID,917.816,VALID,0,VALID,93.6994,VALID,0,VALID,20.0523,VALID,13,VALID,0,
2011-06-09, 00:42:05,VALID,917.818,VALID,0,VALID,93.707,VALID,0,VALID,20.0328,VALID,13,VALID,0,
2011-06-09, 00:43:05,VALID,917.743,VALID,0,VALID,94.0043,VALID,0,VALID,20.0343,VALID,12,VALID,0.282031,
2011-06-09, 00:44:05,VALID,917.752,VALID,0,VALID,94.5837,VALID,0,VALID,20.0538,VALID,12,VALID,0.361719,
2011-06-09, 00:45:05,VALID,917.669,VALID,0,VALID,94.6828,VALID,0,VALID,19.9953,VALID,13,VALID,0.402344,
2011-06-09, 00:46:05,VALID,917.656,VALID,0,VALID,94.7286,VALID,0,VALID,19.9758,VALID,13,VALID,0.329297,
2011-06-09, 00:47:05,VALID,917.63,VALID,0,VALID,94.7286,VALID,0,VALID,19.9173,VALID,13,VALID,0.525,
2011-06-09, 00:48:05,VALID,917.637,VALID,0,VALID,95.0869,VALID,0,VALID,19.9158,VALID,13,VALID,0.696875,
2011-06-09, 00:49:05,VALID,917.625,VALID,0,VALID,95.2546,VALID,0,VALID,19.9173,VALID,13,VALID,0.756641,
2011-06-09, 00:50:05,VALID,917.569,VALID,0,VALID,95.4452,VALID,0,VALID,19.9158,VALID,13,VALID,0.878906,
2011-06-09, 00:51:05,VALID,917.576,VALID,0,VALID,95.4909,VALID,0,VALID,19.9173,VALID,13,VALID,0.920313,
2011-06-09, 00:52:05,VALID,917.541,VALID,0,VALID,95.4223,VALID,0,VALID,19.8978,VALID,13,VALID,0.76875,
2011-06-09, 00:53:05,VALID,917.549,VALID,0,VALID,95.59,VALID,0,VALID,19.8378,VALID,13,VALID,0.983594,
2011-06-09, 00:54:05,VALID,917.553,VALID,0,VALID,95.6662,VALID,0,VALID,19.8783,VALID,13,VALID,0.815234,
2011-06-09, 00:55:05,VALID,917.543,VALID,0,VALID,95.6205,VALID,0,VALID,19.8588,VALID,13,VALID,0.557031,
2011-06-09, 00:56:05,VALID,917.522,VALID,0,VALID,95.6129,VALID,0,VALID,19.8183,VALID,12,VALID,0.713281,
2011-06-09, 00:57:05,VALID,917.551,VALID,0,VALID,95.6434,VALID,0,VALID,19.8198,VALID,13,VALID,0.710938,
2011-06-09, 00:58:05,VALID,917.518,VALID,0,VALID,95.7806,VALID,0,VALID,19.8393,VALID,13,VALID,0.625,
2011-06-09, 00:59:05,VALID,917.516,VALID,0,VALID,95.9407,VALID,0,VALID,19.8978,VALID,13,VALID,0.731641,
2011-06-09, 01:00:05,VALID,917.488,VALID,0,VALID,95.9788,VALID,0,VALID,19.8978,VALID,13,VALID,0.478125,
2011-06-09, 01:01:05,VALID,917.463,VALID,0,VALID,96.0093,VALID,0,VALID,19.9563,VALID,13,VALID,0.819531,
2011-06-09, 01:02:05,VALID,917.436,VALID,0,VALID,96.0703,VALID,0,VALID,19.9563,VALID,12,VALID,0.814453,
2011-06-09, 01:03:05,VALID,917.427,VALID,0,VALID,95.8721,VALID,0,VALID,19.9368,VALID,13,VALID,0.730859,
2011-06-09, 01:04:05,VALID,917.4,VALID,0,VALID,95.9864,VALID,0,VALID,19.9758,VALID,13,VALID,0.759375,
2011-06-09, 01:05:05,VALID,917.386,VALID,0,VALID,95.9712,VALID,0,VALID,19.9743,VALID,12,VALID,0.870703,
2011-06-09, 01:06:05,VALID,917.356,VALID,0,VALID,95.834,VALID,0,VALID,19.9353,VALID,13,VALID,0.491406,
2011-06-09, 01:07:05,VALID,917.342,VALID,0,VALID,95.7958,VALID,0,VALID,19.9563,VALID,12,VALID,0.546875,
2011-06-09, 01:08:05,VALID,917.359,VALID,0,VALID,95.8035,VALID,0,VALID,19.9563,VALID,12,VALID,0.185937,
2011-06-09, 01:09:05,VALID,917.329,VALID,0,VALID,95.7882,VALID,0,VALID,19.9563,VALID,12,VALID,0.0425781,
2011-06-09, 01:10:05,VALID,917.329,VALID,0,VALID,95.8416,VALID,0,VALID,19.9548,VALID,12,VALID,0,
2011-06-09, 01:11:05,VALID,917.322,VALID,0,VALID,95.9254,VALID,0,VALID,19.9953,VALID,13,VALID,0,
2011-06-09, 01:12:05,VALID,917.318,VALID,0,VALID,95.9788,VALID,0,VALID,20.0343,VALID,12,VALID,0.197656,
2011-06-09, 01:13:05,VALID,917.274,VALID,0,VALID,95.9026,VALID,0,VALID,20.0343,VALID,13,VALID,0.253125,
2011-06-09, 01:14:05,VALID,917.281,VALID,0,VALID,95.8035,VALID,0,VALID,19.9953,VALID,12,VALID,0.467578,
2011-06-09, 01:15:05,VALID,917.283,VALID,0,VALID,95.6586,VALID,0,VALID,19.9548,VALID,12,VALID,0.442578,
2011-06-09, 01:16:05,VALID,917.281,VALID,0,VALID,95.529,VALID,0,VALID,19.9368,VALID,12,VALID,0.277344,
2011-06-09, 01:17:05,VALID,917.3,VALID,0,VALID,95.3156,VALID,0,VALID,19.8558,VALID,12,VALID,0.146875,
2011-06-09, 01:18:05,VALID,917.266,VALID,0,VALID,95.0411,VALID,0,VALID,19.8588,VALID,12,VALID,0.26875,
2011-06-09, 01:19:05,VALID,917.241,VALID,0,VALID,94.82,VALID,0,VALID,19.8003,VALID,12,VALID,0.415234,
2011-06-09, 01:20:05,VALID,917.231,VALID,0,VALID,94.9496,VALID,0,VALID,19.8198,VALID,12,VALID,0.676953,
2011-06-09, 01:21:05,VALID,917.207,VALID,0,VALID,95.2012,VALID,0,VALID,19.8393,VALID,13,VALID,0.977734,
2011-06-09, 01:22:05,VALID,917.16,VALID,0,VALID,95.1783,VALID,0,VALID,19.7808,VALID,12,VALID,0.738672,
2011-06-09, 01:23:05,VALID,917.183,VALID,0,VALID,95.0869,VALID,0,VALID,19.7223,VALID,13,VALID,0.6375,
2011-06-09, 01:24:05,VALID,917.137,VALID,0,VALID,95.1402,VALID,0,VALID,19.7448,VALID,12,VALID,0.442969,
2011-06-09, 01:25:05,VALID,917.13,VALID,0,VALID,95.2241,VALID,0,VALID,19.6833,VALID,13,VALID,0.389453,
2011-06-09, 01:26:05,VALID,917.104,VALID,0,VALID,95.2698,VALID,0,VALID,19.6443,VALID,13,VALID,0.542969,
2011-06-09, 01:27:05,VALID,917.088,VALID,0,VALID,95.1936,VALID,0,VALID,19.6263,VALID,12,VALID,0.416797,
2011-06-09, 01:28:05,VALID,917.071,VALID,0,VALID,95.2775,VALID,0,VALID,19.5858,VALID,12,VALID,0.468359,
2011-06-09, 01:29:05,VALID,917.041,VALID,0,VALID,95.3766,VALID,0,VALID,19.5648,VALID,12,VALID,0.444531,
2011-06-09, 01:30:05,VALID,917.005,VALID,0,VALID,95.4528,VALID,0,VALID,19.6053,VALID,12,VALID,0.260547,
2011-06-09, 01:31:05,VALID,917.028,VALID,0,VALID,95.5214,VALID,0,VALID,19.6053,VALID,13,VALID,0.155078,
2011-06-09, 01:32:05,VALID,917.025,VALID,0,VALID,95.529,VALID,0,VALID,19.5858,VALID,13,VALID,0,
2011-06-09, 01:33:05,VALID,917,VALID,0,VALID,95.5367,VALID,0,VALID,19.5468,VALID,13,VALID,0,
2011-06-09, 01:34:05,VALID,917.015,VALID,0,VALID,95.5595,VALID,0,VALID,19.5663,VALID,13,VALID,0,
2011-06-09, 01:35:05,VALID,917.044,VALID,0,VALID,95.5976,VALID,0,VALID,19.5663,VALID,13,VALID,0,
2011-06-09, 01:36:05,VALID,917.027,VALID,0,VALID,95.6357,VALID,0,VALID,19.5858,VALID,13,VALID,0,
2011-06-09, 01:37:05,VALID,917.041,VALID,0,VALID,95.6205,VALID,0,VALID,19.5453,VALID,12,VALID,0,
2011-06-09, 01:38:05,VALID,917.069,VALID,0,VALID,95.4604,VALID,0,VALID,19.4883,VALID,12,VALID,0,
2011-06-09, 01:39:05,VALID,917.05,VALID,0,VALID,95.3842,VALID,0,VALID,19.4883,VALID,13,VALID,0,
2011-06-09, 01:40:05,VALID,917.033,VALID,0,VALID,95.3689,VALID,0,VALID,19.4883,VALID,12,VALID,0.451172,
2011-06-09, 01:41:05,VALID,917.043,VALID,0,VALID,95.4223,VALID,0,VALID,19.4688,VALID,12,VALID,0.308984,
2011-06-09, 01:42:05,VALID,917.019,VALID,0,VALID,95.4833,VALID,0,VALID,19.4898,VALID,12,VALID,0.208594,
2011-06-09, 01:43:05,VALID,917.025,VALID,0,VALID,95.5671,VALID,0,VALID,19.4688,VALID,12,VALID,0.0429688,
2011-06-09, 01:44:05,VALID,917.028,VALID,0,VALID,95.6586,VALID,0,VALID,19.4898,VALID,12,VALID,0,
2011-06-09, 01:45:05,VALID,917.013,VALID,0,VALID,95.7501,VALID,0,VALID,19.4883,VALID,12,VALID,0,
2011-06-09, 01:46:05,VALID,917.035,VALID,0,VALID,95.6662,VALID,0,VALID,19.4493,VALID,12,VALID,0.0324219,
2011-06-09, 01:47:05,VALID,917.055,VALID,0,VALID,95.7349,VALID,0,VALID,19.4688,VALID,12,VALID,0.322656,
2011-06-09, 01:48:05,VALID,917.035,VALID,0,VALID,95.8416,VALID,0,VALID,19.4883,VALID,12,VALID,0.167969,
2011-06-09, 01:49:05,VALID,917.016,VALID,0,VALID,95.9026,VALID,0,VALID,19.5078,VALID,12,VALID,0.0695312,
2011-06-09, 01:50:05,VALID,917.002,VALID,0,VALID,95.9559,VALID,0,VALID,19.4883,VALID,12,VALID,0,
2011-06-09, 01:51:05,VALID,917,VALID,0,VALID,95.9331,VALID,0,VALID,19.4688,VALID,12,VALID,0,
2011-06-09, 01:52:05,VALID,916.966,VALID,0,VALID,95.9941,VALID,0,VALID,19.4493,VALID,13,VALID,0,
2011-06-09, 01:53:05,VALID,916.962,VALID,0,VALID,96.1084,VALID,0,VALID,19.4673,VALID,12,VALID,0,
2011-06-09, 01:54:05,VALID,916.955,VALID,0,VALID,96.2075,VALID,0,VALID,19.5093,VALID,12,VALID,0,
2011-06-09, 01:55:05,VALID,916.962,VALID,0,VALID,96.2304,VALID,0,VALID,19.5063,VALID,12,VALID,0,
2011-06-09, 01:56:05,VALID,916.977,VALID,0,VALID,96.177,VALID,0,VALID,19.4688,VALID,12,VALID,0.0847656,
2011-06-09, 01:57:05,VALID,916.985,VALID,0,VALID,96.0093,VALID,0,VALID,19.3518,VALID,12,VALID,0.322266,
2011-06-09, 01:58:05,VALID,916.974,VALID,0,VALID,95.834,VALID,0,VALID,19.2334,VALID,12,VALID,0.528906,
2011-06-09, 01:59:05,VALID,916.959,VALID,0,VALID,95.9788,VALID,0,VALID,19.2738,VALID,12,VALID,0.807031,
2011-06-09, 02:00:05,VALID,916.977,VALID,0,VALID,96.1389,VALID,0,VALID,19.3323,VALID,12,VALID,1.04102,
2011-06-09, 02:01:05,VALID,916.944,VALID,0,VALID,96.3524,VALID,0,VALID,19.4103,VALID,12,VALID,0.977734,
2011-06-09, 02:02:05,VALID,916.963,VALID,0,VALID,96.3142,VALID,0,VALID,19.3923,VALID,12,VALID,1.0875,
2011-06-09, 02:03:05,VALID,916.943,VALID,0,VALID,96.2533,VALID,0,VALID,19.3128,VALID,12,VALID,0.875,
2011-06-09, 02:04:05,VALID,916.929,VALID,0,VALID,96.2075,VALID,0,VALID,19.2348,VALID,12,VALID,0.745703,
2011-06-09, 02:05:05,VALID,916.892,VALID,0,VALID,96.1389,VALID,0,VALID,19.0969,VALID,12,VALID,0.498437,
2011-06-09, 02:06:05,VALID,916.909,VALID,0,VALID,96.1694,VALID,0,VALID,19.0355,VALID,12,VALID,0.630469,
2011-06-09, 02:07:05,VALID,916.888,VALID,0,VALID,96.2837,VALID,0,VALID,19.0788,VALID,12,VALID,0.978516,
2011-06-09, 02:08:05,VALID,916.847,VALID,0,VALID,96.3295,VALID,0,VALID,19.0398,VALID,12,VALID,0.799219,
2011-06-09, 02:09:05,VALID,916.837,VALID,0,VALID,96.4438,VALID,0,VALID,19.0593,VALID,12,VALID,0.994922,
2011-06-09, 02:10:05,VALID,916.8,VALID,0,VALID,96.5582,VALID,0,VALID,19.0593,VALID,12,VALID,0.928906,
2011-06-09, 02:11:05,VALID,916.799,VALID,0,VALID,96.6268,VALID,0,VALID,19.0788,VALID,12,VALID,1.00937,
2011-06-09, 02:12:05,VALID,916.78,VALID,0,VALID,96.5887,VALID,0,VALID,19.0384,VALID,12,VALID,0.598047,
2011-06-09, 02:13:05,VALID,916.78,VALID,0,VALID,96.5429,VALID,0,VALID,18.9409,VALID,12,VALID,0.817578,
2011-06-09, 02:14:05,VALID,916.764,VALID,0,VALID,96.6039,VALID,0,VALID,18.9619,VALID,12,VALID,0.714844,
2011-06-09, 02:15:05,VALID,916.745,VALID,0,VALID,96.6497,VALID,0,VALID,18.9229,VALID,12,VALID,0.561328,
2011-06-09, 02:16:05,VALID,916.772,VALID,0,VALID,96.7183,VALID,0,VALID,18.9034,VALID,12,VALID,0.424609,
2011-06-09, 02:17:05,VALID,916.716,VALID,0,VALID,96.8098,VALID,0,VALID,18.9019,VALID,12,VALID,0.626953,
2011-06-09, 02:18:05,VALID,916.712,VALID,0,VALID,96.8403,VALID,0,VALID,18.9438,VALID,12,VALID,0.830078,
2011-06-09, 02:19:05,VALID,916.715,VALID,0,VALID,96.8479,VALID,0,VALID,18.9229,VALID,12,VALID,0.576172,
2011-06-09, 02:20:05,VALID,916.69,VALID,0,VALID,96.8707,VALID,0,VALID,18.9229,VALID,12,VALID,0.552734,
2011-06-09, 02:21:05,VALID,916.692,VALID,0,VALID,96.886,VALID,0,VALID,18.8824,VALID,12,VALID,0.534375,
2011-06-09, 02:22:05,VALID,916.66,VALID,0,VALID,96.8936,VALID,0,VALID,18.9034,VALID,12,VALID,0.392969,
2011-06-09, 02:23:05,VALID,916.661,VALID,0,VALID,96.8174,VALID,0,VALID,18.8449,VALID,12,VALID,0,
2011-06-09, 02:24:05,VALID,916.633,VALID,0,VALID,96.9089,VALID,0,VALID,18.8867,VALID,12,VALID,0,
2011-06-09, 02:25:05,VALID,916.591,VALID,0,VALID,96.9165,VALID,0,VALID,18.8449,VALID,12,VALID,0,
2011-06-09, 02:26:05,VALID,916.586,VALID,0,VALID,96.9394,VALID,0,VALID,18.8629,VALID,12,VALID,0.187891,
2011-06-09, 02:27:05,VALID,916.557,VALID,0,VALID,96.9622,VALID,0,VALID,18.9229,VALID,12,VALID,0.132422,
2011-06-09, 02:28:05,VALID,916.551,VALID,0,VALID,96.9775,VALID,0,VALID,18.9424,VALID,12,VALID,0,
2011-06-09, 02:29:05,VALID,916.526,VALID,0,VALID,97.0461,VALID,0,VALID,18.9814,VALID,12,VALID,0.135937,
2011-06-09, 02:30:05,VALID,916.524,VALID,0,VALID,97.0232,VALID,0,VALID,19.0427,VALID,12,VALID,0.286328,
2011-06-09, 02:31:05,VALID,916.525,VALID,0,VALID,97.0613,VALID,0,VALID,19.0593,VALID,12,VALID,0.298438,
2011-06-09, 02:32:05,VALID,916.555,VALID,0,VALID,97.069,VALID,0,VALID,19.0788,VALID,12,VALID,0.00820312,
2011-06-09, 02:33:05,VALID,916.528,VALID,0,VALID,97.069,VALID,0,VALID,19.0788,VALID,12,VALID,0,
2011-06-09, 02:34:05,VALID,916.536,VALID,0,VALID,97.0842,VALID,0,VALID,19.0788,VALID,12,VALID,0.0898438,
2011-06-09, 02:35:05,VALID,916.504,VALID,0,VALID,97.1071,VALID,0,VALID,19.1373,VALID,12,VALID,0.434766,
2011-06-09, 02:36:04,VALID,916.481,VALID,0,VALID,97.1071,VALID,0,VALID,19.1568,VALID,12,VALID,0.0121094,
2011-06-09, 02:37:04,VALID,916.49,VALID,0,VALID,97.0918,VALID,0,VALID,19.0788,VALID,12,VALID,0,
2011-06-09, 02:38:04,VALID,916.496,VALID,0,VALID,97.0766,VALID,0,VALID,19.1388,VALID,12,VALID,0,
2011-06-09, 02:39:04,VALID,916.519,VALID,0,VALID,97.1147,VALID,0,VALID,19.1554,VALID,12,VALID,0.433203,
2011-06-09, 02:40:04,VALID,916.533,VALID,0,VALID,97.0308,VALID,0,VALID,18.9243,VALID,12,VALID,0.589063,
2011-06-09, 02:41:04,VALID,916.512,VALID,0,VALID,97.008,VALID,0,VALID,18.8463,VALID,12,VALID,0.48125,
2011-06-09, 02:42:04,VALID,916.535,VALID,0,VALID,97.0385,VALID,0,VALID,18.9257,VALID,12,VALID,0.523828,
2011-06-09, 02:43:04,VALID,916.512,VALID,0,VALID,97.0461,VALID,0,VALID,18.9662,VALID,12,VALID,0.621484,
2011-06-09, 02:44:04,VALID,916.527,VALID,0,VALID,97.1376,VALID,0,VALID,19.0037,VALID,12,VALID,0.612891,
2011-06-09, 02:45:04,VALID,916.517,VALID,0,VALID,97.1376,VALID,0,VALID,19.0218,VALID,12,VALID,0.527734,
2011-06-09, 02:46:04,VALID,916.518,VALID,0,VALID,97.1147,VALID,0,VALID,18.9424,VALID,12,VALID,0.391797,
2011-06-09, 02:47:04,VALID,916.496,VALID,0,VALID,97.1452,VALID,0,VALID,18.9048,VALID,12,VALID,0.263672,
2011-06-09, 02:48:04,VALID,916.499,VALID,0,VALID,97.1452,VALID,0,VALID,18.9229,VALID,12,VALID,0.212891,
2011-06-09, 02:49:04,VALID,916.468,VALID,0,VALID,97.1452,VALID,0,VALID,18.9438,VALID,12,VALID,0,
2011-06-09, 02:50:04,VALID,916.469,VALID,0,VALID,97.1604,VALID,0,VALID,18.9243,VALID,12,VALID,0,
2011-06-09, 02:51:04,VALID,916.471,VALID,0,VALID,97.1528,VALID,0,VALID,18.9243,VALID,12,VALID,0,
2011-06-09, 02:52:04,VALID,916.439,VALID,0,VALID,97.1528,VALID,0,VALID,18.8839,VALID,12,VALID,0,
2011-06-09, 02:53:04,VALID,916.439,VALID,0,VALID,97.1833,VALID,0,VALID,18.9243,VALID,12,VALID,0,
2011-06-09, 02:54:04,VALID,916.439,VALID,0,VALID,97.1833,VALID,0,VALID,18.9424,VALID,12,VALID,0,
2011-06-09, 02:55:04,VALID,916.461,VALID,0,VALID,97.1833,VALID,0,VALID,18.9005,VALID,12,VALID,0,
2011-06-09, 02:56:04,VALID,916.479,VALID,0,VALID,97.1528,VALID,0,VALID,18.8449,VALID,12,VALID,0,
2011-06-09, 02:57:04,VALID,916.496,VALID,0,VALID,97.1299,VALID,0,VALID,18.7864,VALID,13,VALID,0.0140625,
2011-06-09, 02:58:04,VALID,916.476,VALID,0,VALID,97.1909,VALID,0,VALID,18.8644,VALID,12,VALID,0.2875,
2011-06-09, 02:59:04,VALID,916.443,VALID,0,VALID,97.1833,VALID,0,VALID,18.8839,VALID,13,VALID,0.239453,
2011-06-09, 03:00:04,VALID,916.468,VALID,0,VALID,97.1757,VALID,0,VALID,18.8268,VALID,12,VALID,0.105469,
2011-06-09, 03:01:04,VALID,916.428,VALID,0,VALID,97.2214,VALID,0,VALID,18.8839,VALID,12,VALID,0,
2011-06-09, 03:02:04,VALID,916.419,VALID,0,VALID,97.2214,VALID,0,VALID,18.9229,VALID,12,VALID,0,
2011-06-09, 03:03:04,VALID,916.445,VALID,0,VALID,97.2214,VALID,0,VALID,18.9229,VALID,12,VALID,0,
2011-06-09, 03:04:04,VALID,916.42,VALID,0,VALID,97.229,VALID,0,VALID,19.0052,VALID,12,VALID,0,
2011-06-09, 03:05:04,VALID,916.397,VALID,0,VALID,97.2138,VALID,0,VALID,18.8644,VALID,12,VALID,0.382813,
2011-06-09, 03:06:04,VALID,916.39,VALID,0,VALID,97.2519,VALID,0,VALID,18.9243,VALID,12,VALID,0.322656,
2011-06-09, 03:07:04,VALID,916.374,VALID,0,VALID,97.2214,VALID,0,VALID,18.7878,VALID,12,VALID,0.491016,
2011-06-09, 03:08:04,VALID,916.369,VALID,0,VALID,97.229,VALID,0,VALID,18.8254,VALID,12,VALID,0.555859,
2011-06-09, 03:09:04,VALID,916.379,VALID,0,VALID,97.2672,VALID,0,VALID,19.0052,VALID,12,VALID,0.634375,
2011-06-09, 03:10:04,VALID,916.372,VALID,0,VALID,97.2672,VALID,0,VALID,18.9604,VALID,12,VALID,0.4875,
2011-06-09, 03:11:04,VALID,916.381,VALID,0,VALID,97.2672,VALID,0,VALID,18.9871,VALID,12,VALID,0.471875,
2011-06-09, 03:12:04,VALID,916.355,VALID,0,VALID,97.2672,VALID,0,VALID,18.8853,VALID,12,VALID,0.621875,
2011-06-09, 03:13:04,VALID,916.401,VALID,0,VALID,97.2519,VALID,0,VALID,18.8254,VALID,12,VALID,0.648047,
2011-06-09, 03:14:04,VALID,916.415,VALID,0,VALID,97.2367,VALID,0,VALID,18.7669,VALID,12,VALID,0.51875,
2011-06-09, 03:15:04,VALID,916.391,VALID,0,VALID,97.2443,VALID,0,VALID,18.7265,VALID,12,VALID,0.599219,
2011-06-09, 03:16:04,VALID,916.378,VALID,0,VALID,97.2519,VALID,0,VALID,18.7084,VALID,12,VALID,0.780859,
2011-06-09, 03:17:04,VALID,916.393,VALID,0,VALID,97.2367,VALID,0,VALID,18.6694,VALID,12,VALID,0.726563,
2011-06-09, 03:18:04,VALID,916.406,VALID,0,VALID,97.229,VALID,0,VALID,18.6109,VALID,12,VALID,0.76875,
2011-06-09, 03:19:04,VALID,916.405,VALID,0,VALID,97.229,VALID,0,VALID,18.572,VALID,12,VALID,0.984375,
2011-06-09, 03:20:04,VALID,916.408,VALID,0,VALID,97.2367,VALID,0,VALID,18.6109,VALID,12,VALID,0.922656,
2011-06-09, 03:21:04,VALID,916.379,VALID,0,VALID,97.2443,VALID,0,VALID,18.5525,VALID,12,VALID,0.763281,
2011-06-09, 03:22:04,VALID,916.408,VALID,0,VALID,97.2519,VALID,0,VALID,18.5149,VALID,12,VALID,1.05,
2011-06-09, 03:23:04,VALID,916.443,VALID,0,VALID,97.2443,VALID,0,VALID,18.455,VALID,12,VALID,0.694922,
2011-06-09, 03:24:04,VALID,916.433,VALID,0,VALID,97.2672,VALID,0,VALID,18.5135,VALID,12,VALID,1.43867,
2011-06-09, 03:25:04,VALID,916.423,VALID,0,VALID,97.2824,VALID,0,VALID,18.5914,VALID,12,VALID,1.46836,
2011-06-09, 03:26:04,VALID,916.439,VALID,0,VALID,97.3053,VALID,0,VALID,18.6694,VALID,12,VALID,1.37305,
2011-06-09, 03:27:04,VALID,916.443,VALID,0,VALID,97.3358,VALID,0,VALID,18.7098,VALID,12,VALID,1.2082,
2011-06-09, 03:28:04,VALID,916.444,VALID,0,VALID,97.351,VALID,0,VALID,18.7293,VALID,12,VALID,1.14961,
2011-06-09, 03:29:04,VALID,916.455,VALID,0,VALID,97.3358,VALID,0,VALID,18.6666,VALID,12,VALID,0.936719,
2011-06-09, 03:30:04,VALID,916.432,VALID,0,VALID,97.351,VALID,0,VALID,18.7279,VALID,12,VALID,1.00937,
2011-06-09, 03:31:04,VALID,916.422,VALID,0,VALID,97.3586,VALID,0,VALID,18.6903,VALID,12,VALID,0.899219,
2011-06-09, 03:32:04,VALID,916.449,VALID,0,VALID,97.3586,VALID,0,VALID,18.6499,VALID,12,VALID,0.721875,
2011-06-09, 03:33:04,VALID,916.432,VALID,0,VALID,97.3586,VALID,0,VALID,18.6319,VALID,12,VALID,0.69375,
2011-06-09, 03:34:04,VALID,916.411,VALID,0,VALID,97.3434,VALID,0,VALID,18.6513,VALID,12,VALID,0.563281,
2011-06-09, 03:35:04,VALID,916.416,VALID,0,VALID,97.3434,VALID,0,VALID,18.6513,VALID,12,VALID,0.876172,
2011-06-09, 03:36:04,VALID,916.427,VALID,0,VALID,97.3815,VALID,0,VALID,18.6694,VALID,12,VALID,0.780859,
2011-06-09, 03:37:04,VALID,916.428,VALID,0,VALID,97.3815,VALID,0,VALID,18.6499,VALID,12,VALID,1.12461,
2011-06-09, 03:38:04,VALID,916.428,VALID,0,VALID,97.3968,VALID,0,VALID,18.7683,VALID,12,VALID,1.02461,
2011-06-09, 03:39:04,VALID,916.429,VALID,0,VALID,97.3815,VALID,0,VALID,18.7488,VALID,12,VALID,0.814844,
2011-06-09, 03:40:04,VALID,916.451,VALID,0,VALID,97.3968,VALID,0,VALID,18.7279,VALID,12,VALID,0.708203,
2011-06-09, 03:41:04,VALID,916.464,VALID,0,VALID,97.3968,VALID,0,VALID,18.7474,VALID,12,VALID,0.535547,
2011-06-09, 03:42:04,VALID,916.421,VALID,0,VALID,97.3968,VALID,0,VALID,18.764,VALID,12,VALID,0.664453,
2011-06-09, 03:43:04,VALID,916.426,VALID,0,VALID,97.3891,VALID,0,VALID,18.8434,VALID,12,VALID,0.698828,
2011-06-09, 03:44:04,VALID,916.418,VALID,0,VALID,97.4349,VALID,0,VALID,18.8853,VALID,12,VALID,0.692578,
2011-06-09, 03:45:04,VALID,916.42,VALID,0,VALID,97.4273,VALID,0,VALID,18.9214,VALID,12,VALID,0.650781,
2011-06-09, 03:46:04,VALID,916.449,VALID,0,VALID,97.4196,VALID,0,VALID,19.0023,VALID,12,VALID,0.625,
2011-06-09, 03:47:04,VALID,916.468,VALID,0,VALID,97.4273,VALID,0,VALID,19.0023,VALID,12,VALID,0.628125,
2011-06-09, 03:48:04,VALID,916.459,VALID,0,VALID,97.4196,VALID,0,VALID,19.0023,VALID,12,VALID,0.415625,
2011-06-09, 03:49:04,VALID,916.462,VALID,0,VALID,97.4349,VALID,0,VALID,19.0023,VALID,12,VALID,0.642578,